Weather History for St. George, UT

Change the Weather History Date:

Friday, April 5, 2013

  Actual Average Record
Temperature  
Mean Temperature 68 °F -  
Max Temperature 78 °F 75 °F 91 °F (1930)
Min Temperature 57 °F 42 °F 26 °F (1945)
Cooling Degree Days 2    
Growing Degree Days 18 (Base 50)    
Moisture  
Dew Point 28 °F    
Average Humidity 22    
Maximum Humidity 29    
Minimum Humidity 16    
Precipitation  
Precipitation 0.00 in - - ()
Sea Level Pressure  
Sea Level Pressure 29.93 in    
Wind  
Wind Speed 7 mph (SW)    
Max Wind Speed 16 mph    
Max Gust Speed 22 mph    
Visibility 10 miles    
Events      
Averages and records for this station are not official NWS values.
T = Trace of Precipitation, MM = Missing Value Source: NWS Daily Summary

Daily Weather History Graph

Daily Weather History Graph

Search for Another Location

Airport:

Trip Planner

Search our weather history database for the weather conditions in past years. The results will help you decide how hot, cold, wet, or windy it might be!

Date:

Astronomy

Apr. 05, 2013 Rise Set
Actual Time 7:13 AM MDT 8:00 PM MDT
Civil Twilight 6:47 AM MDT 8:27 PM MDT
Nautical Twilight 6:16 AM MDT 8:58 PM MDT
Astronomical Twilight 5:44 AM MDT 9:30 PM MDT
Moon 4:17 AM MDT (4/5) 3:34 PM MDT (4/5)
Length of Visible Light 13h 39m
Length of Day
12h 46m
Waning Crescent, 23% of the Moon is Illuminated
Apr 5
Waning Crescent
Apr 10
New
Apr 18
First Quarter
Apr 25
Full
May 2
Last Quarter

Hourly Weather History & Observations

Time (MDT) Temp. Dew Point Humidity Pressure Visibility Wind Dir Wind Speed Gust Speed Precip Events Conditions
12:15 AM 69.8 °F 24.8 °F 18% 29.95 in 10.0 mi SE 6.9 mph - N/A   Overcast
12:35 AM 69.8 °F 24.8 °F 18% 29.95 in 10.0 mi Calm Calm - N/A   Overcast
12:55 AM 69.8 °F 24.8 °F 18% 29.95 in 10.0 mi North 4.6 mph - N/A   Mostly Cloudy
1:15 AM 71.6 °F 23.0 °F 16% 29.94 in 10.0 mi East 3.5 mph - N/A   Mostly Cloudy
1:35 AM 71.6 °F 23.0 °F 16% 29.94 in 10.0 mi WSW 11.5 mph - N/A   Mostly Cloudy
1:55 AM 69.8 °F 23.0 °F 17% 29.94 in 10.0 mi SSW 9.2 mph - N/A   Mostly Cloudy
2:15 AM 66.2 °F 23.0 °F 19% 29.94 in 10.0 mi South 4.6 mph - N/A   Partly Cloudy
2:35 AM 64.4 °F 23.0 °F 21% 29.94 in 10.0 mi SSE 5.8 mph - N/A   Partly Cloudy
2:55 AM 62.6 °F 24.8 °F 24% 29.94 in 10.0 mi SE 5.8 mph - N/A   Scattered Clouds
3:15 AM 64.4 °F 24.8 °F 22% 29.94 in 10.0 mi ESE 8.1 mph - N/A   Mostly Cloudy
3:35 AM 64.4 °F 23.0 °F 21% 29.93 in 10.0 mi SE 5.8 mph - N/A   Scattered Clouds
3:55 AM 62.6 °F 23.0 °F 22% 29.93 in 10.0 mi SE 6.9 mph - N/A   Clear
4:15 AM 62.6 °F 23.0 °F 22% 29.93 in 10.0 mi SSE 10.4 mph - N/A   Clear
4:35 AM 62.6 °F 23.0 °F 22% 29.93 in 10.0 mi SSE 4.6 mph - N/A   Partly Cloudy
4:55 AM 64.4 °F 24.8 °F 22% 29.94 in 10.0 mi SSW 5.8 mph - N/A   Scattered Clouds
5:15 AM 60.8 °F 23.0 °F 23% 29.94 in 10.0 mi ESE 8.1 mph - N/A   Mostly Cloudy
5:35 AM 60.8 °F 24.8 °F 25% 29.94 in 10.0 mi ESE 10.4 mph - N/A   Overcast
5:55 AM 60.8 °F 24.8 °F 25% 29.94 in 10.0 mi SE 8.1 mph - N/A   Overcast
6:15 AM 60.8 °F 24.8 °F 25% 29.94 in 10.0 mi SE 6.9 mph - N/A   Mostly Cloudy
6:35 AM 60.8 °F 24.8 °F 25% 29.94 in 10.0 mi SE 8.1 mph - N/A   Overcast
6:55 AM 60.8 °F 24.8 °F 25% 29.95 in 10.0 mi ESE 6.9 mph - N/A   Overcast
7:15 AM 59.0 °F 24.8 °F 27% 29.95 in 10.0 mi SE 6.9 mph - N/A   Partly Cloudy
7:35 AM 57.2 °F 24.8 °F 29% 29.96 in 10.0 mi ESE 6.9 mph - N/A   Clear
7:55 AM 57.2 °F 24.8 °F 29% 29.95 in 10.0 mi ESE 11.5 mph - N/A   Clear
8:15 AM 59.0 °F 24.8 °F 27% 29.96 in 10.0 mi SE 9.2 mph - N/A   Clear
8:35 AM 60.8 °F 24.8 °F 25% 29.96 in 10.0 mi ESE 6.9 mph - N/A   Clear
8:55 AM 60.8 °F 26.6 °F 27% 29.97 in 10.0 mi ESE 8.1 mph - N/A   Clear
9:15 AM 64.4 °F 26.6 °F 24% 29.98 in 9.0 mi ESE 9.2 mph - N/A   Clear
9:35 AM 66.2 °F 28.4 °F 24% 29.98 in 10.0 mi ESE 3.5 mph - N/A   Clear
9:55 AM 64.4 °F 28.4 °F 26% 29.99 in 10.0 mi NW 5.8 mph - N/A   Clear
10:15 AM 66.2 °F 28.4 °F 24% 29.99 in 10.0 mi Calm Calm - N/A   Clear
10:35 AM 68.0 °F 30.2 °F 24% 29.98 in 10.0 mi Calm Calm - N/A   Clear
10:55 AM 68.0 °F 30.2 °F 24% 29.98 in 10.0 mi WNW 5.8 mph - N/A   Clear
11:15 AM 69.8 °F 30.2 °F 23% 29.98 in 10.0 mi WNW 4.6 mph - N/A   Clear
11:35 AM 69.8 °F 33.8 °F 27% 29.98 in 10.0 mi North 5.8 mph - N/A   Clear
11:55 AM 71.6 °F 33.8 °F 25% 29.98 in 10.0 mi West 5.8 mph - N/A   Clear
12:15 PM 71.6 °F 33.8 °F 25% 29.98 in 10.0 mi West 9.2 mph - N/A   Clear
12:35 PM 73.4 °F 33.8 °F 23% 29.96 in 10.0 mi WSW 11.5 mph - N/A   Clear
12:55 PM 73.4 °F 30.2 °F 20% 29.96 in 10.0 mi WSW 11.5 mph 18.4 mph N/A   Clear
1:15 PM 73.4 °F 28.4 °F 19% 29.95 in 10.0 mi West 9.2 mph 16.1 mph N/A   Clear
1:35 PM 73.4 °F 28.4 °F 19% 29.94 in 10.0 mi WSW 12.7 mph 16.1 mph N/A   Clear
1:55 PM 75.2 °F 28.4 °F 18% 29.94 in 10.0 mi NW 8.1 mph - N/A   Clear
2:15 PM 75.2 °F 33.8 °F 22% 29.94 in 10.0 mi WSW 9.2 mph 18.4 mph N/A   Clear
2:35 PM 75.2 °F 33.8 °F 22% 29.93 in 10.0 mi West 15.0 mph 21.9 mph N/A   Clear
2:55 PM 75.2 °F 33.8 °F 22% 29.93 in 10.0 mi West 16.1 mph 19.6 mph N/A   Clear
3:15 PM 77.0 °F 32.0 °F 19% 29.92 in 10.0 mi West 16.1 mph 20.7 mph N/A   Clear
3:35 PM 77.0 °F 32.0 °F 19% 29.92 in 10.0 mi WSW 12.7 mph - N/A   Clear
3:55 PM 77.0 °F 32.0 °F 19% 29.91 in 10.0 mi WSW 13.8 mph 21.9 mph N/A   Clear
4:15 PM 78.8 °F 32.0 °F 18% 29.90 in 10.0 mi WSW 12.7 mph 17.3 mph N/A   Clear
4:35 PM 77.0 °F 32.0 °F 19% 29.89 in 10.0 mi SW 16.1 mph 20.7 mph N/A   Clear
4:55 PM 78.8 °F 32.0 °F 18% 29.89 in 10.0 mi West 9.2 mph 20.7 mph N/A   Clear
5:15 PM 78.8 °F 32.0 °F 18% 29.88 in 10.0 mi SW 12.7 mph 21.9 mph N/A   Clear
5:35 PM 77.0 °F 32.0 °F 19% 29.88 in 10.0 mi West 12.7 mph - N/A   Clear
5:55 PM 77.0 °F 30.2 °F 18% 29.88 in 10.0 mi WSW 15.0 mph - N/A   Clear
6:15 PM 75.2 °F 30.2 °F 19% 29.88 in 10.0 mi WSW 13.8 mph 18.4 mph N/A   Clear
6:35 PM 75.2 °F 30.2 °F 19% 29.89 in 10.0 mi West 13.8 mph 19.6 mph N/A   Clear
6:55 PM 75.2 °F 30.2 °F 19% 29.89 in 10.0 mi WSW 15.0 mph - N/A   Clear
7:15 PM 75.2 °F 30.2 °F 19% 29.89 in 10.0 mi WSW 13.8 mph - N/A   Clear
7:35 PM 75.2 °F 30.2 °F 19% 29.89 in 10.0 mi WSW 10.4 mph - N/A   Clear
7:55 PM 73.4 °F 30.2 °F 20% 29.89 in 10.0 mi West 8.1 mph - N/A   Clear
8:15 PM 73.4 °F 30.2 °F 20% 29.89 in 10.0 mi West 8.1 mph - N/A   Clear
8:35 PM 73.4 °F 28.4 °F 19% 29.90 in 10.0 mi West 9.2 mph - N/A   Clear
8:55 PM 73.4 °F 28.4 °F 19% 29.90 in 10.0 mi West 6.9 mph - N/A   Clear
9:15 PM 73.4 °F 28.4 °F 19% 29.91 in 10.0 mi West 6.9 mph - N/A   Clear
9:35 PM 71.6 °F 28.4 °F 20% 29.91 in 10.0 mi West 5.8 mph - N/A   Clear
9:55 PM 71.6 °F 28.4 °F 20% 29.92 in 10.0 mi Calm Calm - N/A   Clear
10:15 PM 69.8 °F 28.4 °F 21% 29.92 in 10.0 mi NNE 4.6 mph - N/A   Clear
10:35 PM 69.8 °F 28.4 °F 21% 29.93 in 10.0 mi NNE 6.9 mph - N/A   Clear
10:55 PM 68.0 °F 28.4 °F 23% 29.93 in 10.0 mi Calm Calm - N/A   Clear
11:15 PM 66.2 °F 28.4 °F 24% 29.93 in 10.0 mi South 3.5 mph - N/A   Clear
11:35 PM 66.2 °F 28.4 °F 24% 29.93 in 10.0 mi South 3.5 mph - N/A   Clear
11:55 PM 64.4 °F 28.4 °F 26% 29.93 in 10.0 mi Calm Calm - N/A   Clear